Location: Newark
(42.8481°N, 0.4872°E)
Time: 17:29:53
(UTC+00:00)

A-11 Canister half - Pass Details

Date: 27 October 2020
Orbit: 1525 x 1683 km, 47.3° (Epoch: 22 November)

Event Time Altitude Azimuth Distance (km) Brightness Sun altitude
Rises 20:49:48 0° 296° (WNW) 4,690 12.4 -42.6°
Reaches altitude 10° 20:52:55 10° 292° (WNW) 3,698 11.6 -43.1°
Enters shadow 20:59:36 46° 260° (W) 1,962 9.6 -44.2°
Maximum altitude 21:01:52 55° 218° (SW) 1,780 - -44.6°
Drops below altitude 10° 21:10:53 10° 143° (SE) 3,715 - -46.0°
Sets 21:14:02 0° 139° (SE) 4,712 - -46.5°
